Location: Unspecified
(52.0000°N, 4.4000°E)
Time: 20:49:17
(UTC+00:00)

Cosmos 1934 Rocket - Pass Details

Date: 14 May 2025
Orbit: 938 x 997 km, 83.0° (Epoch: 15 June)

Event Time Altitude Azimuth Distance (km) Brightness Sun altitude
Rises 22:57:36 0° 349° (N) 3,652 8.7 -18.6°
Reaches altitude 10° 23:00:05 10° 351° (N) 2,710 7.6 -18.6°
Maximum altitude 23:06:19 85° 79° (E) 984 4.0 -18.8°
Enters shadow 23:09:30 32° 168° (SSE) 1,628 4.6 -18.8°
